This demonstration page uses our WeatherBlox Daily Observations layout. Learn more.

Left ArrowRight Arrow

34.02893, -84.19858

Hourly Observations for January 4, 2018

Temp ( °F °C ) Dew Point ( °F °C ) Humidity (%) Winds ( mph kmh ) Pressure ( in mb ) Visibility ( mi km ) Precip ( " mm )
12:53 am 00:53 Clear 27 -2.8 7 -13.9 43 43 WNW 10 17 30.06 1018 10 16 0.00 0.00
1:53 am 01:53 Clear 26 -3.3 7 -13.9 44 44 WNW 10 17 30.05 1018 10 16 0.00 0.00
2:53 am 02:53 Clear 26 -3.3 7 -13.9 44 44 NW 10 17 30.04 1017 10 16 0.00 0.00
3:53 am 03:53 Clear 25 -3.9 7 -13.9 46 46 NW 14 22 30.04 1017 10 16 0.00 0.00
4:53 am 04:53 Clear 24 -4.4 8 -13.3 50 50 NW 14 22 30.03 1017 10 16 0.00 0.00
5:53 am 05:53 Clear 23 -5 9 -12.8 55 55 NW 9 15 30.05 1018 10 16 0.00 0.00
6:53 am 06:53 Clear 22 -5.6 9 -12.8 57 57 NW 14 22 30.06 1018 10 16 0.00 0.00
7:53 am 07:53 Sunny 22 -5.6 10 -12.2 60 60 NW 17 28 30.08 1019 10 16 0.00 0.00
8:53 am 08:53 Sunny 22 -5.6 10 -12.2 60 60 NW 15 24 30.10 1019 10 16 0.00 0.00
9:53 am 09:53 Sunny 24 -4.4 9 -12.8 52 52 NW 20 31 30.11 1020 10 16 0.00 0.00
10:53 am 10:53 Sunny 26 -3.3 7 -13.9 44 44 NW 21 33 30.12 1020 10 16 0.00 0.00
11:53 am 11:53 Sunny 29 -1.7 7 -13.9 39 39 NW 16 26 30.12 1020 10 16 0.00 0.00
12:53 pm 12:53 Sunny 30 -1.1 6 -14.4 36 36 WNW 14 22 30.10 1019 10 16 0.00 0.00
1:53 pm 13:53 Sunny 31 -0.6 4 -15.6 31 31 WNW 22 35 30.11 1020 10 16 0.00 0.00
2:53 pm 14:53 Sunny 32 0 2 -16.7 27 27 NNW 20 31 30.12 1020 10 16 0.00 0.00
3:53 pm 15:53 Sunny 30 -1.1 1 -17.2 29 29 NW 18 30 30.14 1021 10 16 0.00 0.00
4:53 pm 16:53 Sunny 29 -1.7 1 -17.2 30 30 NW 18 30 30.16 1022 10 16 0.00 0.00
5:53 pm 17:53 Clear 26 -3.3 2 -16.7 35 35 NW 13 20 30.19 1023 10 16 0.00 0.00
6:53 pm 18:53 Clear 25 -3.9 4 -15.6 40 40 NW 16 26 30.23 1024 10 16 0.00 0.00
7:53 pm 19:53 Clear 23 -5 4 -15.6 44 44 NW 17 28 30.26 1025 10 16 0.00 0.00
8:53 pm 20:53 Clear 22 -5.6 4 -15.6 46 46 NW 12 19 30.27 1025 10 16 0.00 0.00
9:53 pm 21:53 Clear 21 -6.1 5 -15 50 50 NW 15 24 30.29 1026 10 16 0.00 0.00
10:53 pm 22:53 Clear 20 -6.7 5 -15 52 52 NW 15 24 30.30 1026 10 16 0.00 0.00
11:53 pm 23:53 Clear 19 -7.2 5 -15 54 54 NW 12 19 30.29 1026 10 16 0.00 0.00

Powered by AerisWeather